ORBCOMM FM110 [+] (41182 NORAD) Tracking and Keplerian Element Data

This shows tracking and keplerian element data for the satellite.

Feedback or suggestion? Click here.




ElementValue
Catalog41182
NameORBCOMM FM110 [+]
Epoch Orbit17702
Epoch Day112.19471788
Epoch Year2019
RAAN59.5751
Inclination47.0025
Eccentricity0.0002096
Argument of Perigee320.5958
Mean Anonmoly39.4773
Mean Motion14.54728916
Decay Rate-6.5E-07
L11 41182U 15081D 19112.19471788 -.00000065 00000-0 23174-4 0 9993
L22 41182 47.0025 59.5751 0002096 320.5958 39.4773 14.54728916177024

Live tracking and technical data element details for ORBCOMM FM110 [+] (NORAD 41182). ORBCOMM FM110 [+] can be tracked NOW for your location showing map with azimuth and elevation plus other details from your city location.

Track the satellite on the map from your city or location and see movement details for azimuth, elevation, latitude, longitude, range, height, and movement on the map or in text.







IsCatalogInMostPopularTable: catalog: 41182, numindb: 186
Update: records affected: 1



GetName: 41182 ORBCOMM FM110 [+]

Hit Count: updated at: Tue, 23 Apr 2019 06:32:09 GMT